Flag for U.S.A. Weather past 2 weeks in Fullerton, California, U.S.A.

Now
71 °F

Passing clouds.


Feels Like: 74 °F
Forecast: 64 / 74 °F
Wind: 6 mph from North

Location: Fullerton Municipal Airport

Current Time: Jul 7, 2015 at 8:19:14 PM

Latest Report: Jul 7, 2015 at 7:53 PM


Visibility: 10 mi

Pressure: 29.86 "Hg

Humidity: 71%

Dew point: 61 °F

Location of FullertonLocation

Historic Weather in Fullerton — Graph

°F

Fullerton temperature yesterday

Maximum temperature yesterday: 78 °F (at 2:53 PM)
Minimum temperature yesterday: 67 °F (at 12:53 AM)
Average temperature yesterday: 70 °F

Past Weeks' High & Low Weather Summary

 TemperatureHumidityPressure
High94 °F (Jun 28, 2:53 PM)87% (Jun 23, 2:53 AM)30.05 "Hg (Jun 23, 2:53 AM)
Low64 °F (Jun 27, 5:53 AM)30% (Jun 30, 7:53 PM)29.77 "Hg (Jun 30, 7:53 PM)
Average74 °F65%29.91 "Hg
* Reported Jun 22 6:53 PM — Jul 7 6:53 PM, Fullerton, Weather by CustomWeather, © 2015

Note: Actual official high and low records may vary slightly from our data, if they occured in-between our weather recording intervals... More about our weather records

Advertising

Fullerton weather history for previous 24 hours

 ConditionsComfort  
Time TempWeatherWind HumidityBarometerVisibility
6:53 PM
Tue, Jul 7
73 °FSunny.8 mph66%29.85 "Hg10 mi
5:53 PM74 °FSunny.9 mph64%29.85 "Hg10 mi
4:53 PM76 °FSunny.10 mph58%29.87 "Hg10 mi
3:53 PM77 °FSunny.10 mph56%29.88 "Hg10 mi
2:53 PM78 °FSunny.9 mph56%29.90 "Hg10 mi
1:53 PM75 °FScattered clouds.7 mph62%29.92 "Hg10 mi
12:53 PM72 °FOvercast.3 mph68%29.95 "Hg10 mi
11:53 AM71 °FOvercast.No wind71%29.97 "Hg10 mi
10:53 AM69 °FOvercast.No wind73%29.98 "Hg10 mi
9:53 AM67 °FOvercast.No wind79%29.98 "Hg10 mi
8:53 AM67 °FOvercast.3 mph81%30.00 "Hg10 mi
7:53 AM66 °FOvercast.No wind84%29.99 "Hg10 mi
6:53 AM65 °FOvercast.5 mph87%29.99 "Hg10 mi
5:53 AM66 °FOvercast.5 mph81%29.97 "Hg10 mi
4:53 AM66 °FOvercast.5 mph81%29.96 "Hg10 mi
3:53 AM66 °FOvercast.3 mph81%29.96 "Hg10 mi
2:53 AM67 °FOvercast.No wind79%29.96 "Hg10 mi
1:53 AM67 °FOvercast.No wind79%29.98 "Hg10 mi
12:53 AM67 °FOvercast.No wind79%29.98 "Hg10 mi
11:53 PM
Mon, Jul 6
67 °FOvercast.3 mph79%29.99 "Hg10 mi
10:53 PM67 °FOvercast.6 mph79%29.99 "Hg10 mi
9:53 PM68 °FOvercast.7 mph76%29.99 "Hg10 mi
8:53 PM68 °FPartly sunny.6 mph76%29.97 "Hg10 mi
Weather by CustomWeather, © 2015

See weather overviewHow to use our weather pages